Location: *
(43.0167°S, 179.9000°E)
Time: 19:39:13
(UTC+00:00)

ARIANE 5 R/B - Pass Details

Date: 12 August 2024
Orbit: 747 x 793 km, 98.8° (Epoch: 19 September)

Event Time Altitude Azimuth Distance (km) Brightness Sun altitude
Rises 16:28:11 0° 12° (NNE) 3,259 5.8 -27.6°
Reaches altitude 10° 16:30:30 10° 11° (N) 2,332 5.0 -27.2°
Enters shadow 16:34:35 57° 356° (N) 919 2.7 -26.5°
